| time (UTC) | temp C | wind direction | speed KPH | gust KPH | rain 1hr cm | rain 24hr cm | rain mn cm | humidity % | barometer mb |
| 20260831232329 | 28 | 39 | 0.0 | 3.2 | 0.00 | 0.20 | 0.00 | 87 | 1016.4 |
| 20260831231826 | 28 | 39 | 0.0 | 3.2 | 0.00 | 0.20 | 0.00 | 86 | 1016.3 |
| 20260831231551 | 27 | 39 | 0.0 | 3.2 | 0.00 | 0.20 | 0.00 | 86 | 1016.2 |
| 20260831231322 | 28 | 10 | 0.0 | 0.0 | 0.00 | 0.20 | 0.00 | 86 | 1016.3 |
| 20260831230819 | 28 | 132 | 0.0 | 0.0 | 0.00 | 0.20 | 0.00 | 86 | 1016.3 |
| 20260831230316 | 28 | 135 | 0.0 | 0.0 | 0.00 | 0.20 | 0.00 | 87 | 1016.3 |
| 20260831230035 | 27 | 136 | 0.0 | 0.0 | 0.00 | 0.20 | 0.00 | 87 | 1016.2 |
| 20260831225833 | 28 | 135 | 0.0 | 0.0 | 0.00 | 0.20 | 0.00 | 87 | 1016.3 |
| 20260831225332 | 28 | 144 | 0.0 | 0.0 | 0.00 | 0.20 | 0.00 | 87 | 1016.3 |
| 20260831224829 | 28 | 144 | 0.0 | 0.0 | 0.00 | 0.20 | 0.00 | 87 | 1016.1 |
| 20260831224520 | 27 | 144 | 0.0 | 0.0 | 0.00 | 0.20 | 0.00 | 87 | 1016.0 |
| 20260831224326 | 28 | 144 | 0.0 | 0.0 | 0.00 | 0.20 | 0.00 | 87 | 1016.1 |
| 20260831223823 | 27 | 144 | 0.0 | 0.0 | 0.00 | 0.20 | 0.00 | 86 | 1016.2 |
| 20260831223340 | 28 | 144 | 0.0 | 0.0 | 0.00 | 0.20 | 0.00 | 86 | 1016.3 |
| 20260831223053 | 27 | 144 | 0.0 | 0.0 | 0.00 | 0.20 | 0.00 | 86 | 1016.3 |
| 20260831222834 | 28 | 144 | 0.0 | 0.0 | 0.00 | 0.20 | 0.00 | 86 | 1016.3 |
| 20260831222330 | 28 | 144 | 0.0 | 0.0 | 0.00 | 0.20 | 0.00 | 86 | 1016.4 |
| 20260831221827 | 28 | 144 | 0.0 | 0.0 | 0.00 | 0.20 | 0.00 | 86 | 1016.5 |
| 20260831221530 | 27 | 144 | 0.0 | 0.0 | 0.00 | 0.20 | 0.00 | 85 | 1016.4 |
| 20260831221323 | 28 | 144 | 0.0 | 0.0 | 0.00 | 0.20 | 0.00 | 85 | 1016.4 |
| 20260831220840 | 28 | 144 | 0.0 | 0.0 | 0.00 | 0.20 | 0.00 | 85 | 1016.2 |
| 20260831220315 | 28 | 144 | 0.0 | 0.0 | 0.00 | 0.20 | 0.00 | 85 | 1016.3 |
| 20260831220052 | 27 | 144 | 0.0 | 0.0 | 0.00 | 0.20 | 0.00 | 85 | 1016.3 |
| 20260831215831 | 28 | 144 | 0.0 | 0.0 | 0.00 | 0.20 | 0.00 | 85 | 1016.3 |
| 20260831215349 | 28 | 144 | 0.0 | 4.8 | 0.00 | 0.20 | 0.00 | 85 | 1016.4 |
| 20260831214826 | 28 | 144 | 1.6 | 4.8 | 0.00 | 0.20 | 0.00 | 85 | 1016.3 |
| 20260831214514 | 28 | 132 | 0.0 | 4.8 | 0.00 | 0.20 | 0.00 | 84 | 1016.2 |
| 20260831214323 | 28 | 132 | 0.0 | 4.8 | 0.00 | 0.20 | 0.00 | 84 | 1016.3 |
| 20260831213821 | 28 | 129 | 3.2 | 4.8 | 0.00 | 0.20 | 0.00 | 84 | 1016.3 |
| 20260831213010 | 27 | 122 | 0.0 | 4.8 | 0.00 | 0.20 | 0.00 | 84 | 1016.2 |
| 20260831212831 | 28 | 122 | 0.0 | 4.8 | 0.00 | 0.20 | 0.00 | 84 | 1016.4 |
| 20260831212326 | 28 | 98 | 1.6 | 12.9 | 0.00 | 0.20 | 0.00 | 84 | 1016.5 |
| 20260831211821 | 28 | 120 | 8.0 | 12.9 | 0.00 | 0.20 | 0.00 | 84 | 1016.5 |
| 20260831211554 | 28 | 118 | 6.4 | 12.9 | 0.00 | 0.20 | 0.00 | 84 | 1016.4 |
| 20260831211338 | 28 | 120 | 8.0 | 11.3 | 0.00 | 0.20 | 0.00 | 84 | 1016.5 |
| 20260831210833 | 28 | 82 | 3.2 | 9.7 | 0.00 | 0.20 | 0.00 | 84 | 1016.5 |
| 20260831210330 | 28 | 67 | 3.2 | 12.9 | 0.00 | 0.20 | 0.00 | 84 | 1016.4 |
| 20260831210016 | 28 | 155 | 4.8 | 12.9 | 0.00 | 0.20 | 0.00 | 84 | 1016.4 |
| 20260831205827 | 28 | 135 | 6.4 | 12.9 | 0.00 | 0.20 | 0.00 | 84 | 1016.5 |
| 20260831205323 | 28 | 120 | 6.4 | 16.1 | 0.00 | 0.20 | 0.00 | 84 | 1016.5 |
| 20260831204820 | 29 | 122 | 9.7 | 16.1 | 0.00 | 0.20 | 0.00 | 83 | 1016.4 |
| 20260831204504 | 30 | 77 | 4.8 | 14.5 | 0.00 | 0.20 | 0.00 | 83 | 1016.3 |
| 20260831204316 | 30 | 57 | 4.8 | 17.7 | 0.00 | 0.20 | 0.00 | 83 | 1016.5 |
| 20260831203831 | 30 | 34 | 11.3 | 19.3 | 0.00 | 0.20 | 0.00 | 82 | 1016.5 |
| 20260831203327 | 31 | 19 | 9.7 | 19.3 | 0.00 | 0.20 | 0.00 | 82 | 1016.4 |
| 20260831203050 | 30 | 344 | 8.0 | 16.1 | 0.00 | 0.20 | 0.00 | 82 | 1016.4 |
| 20260831202824 | 31 | 340 | 8.0 | 16.1 | 0.00 | 0.20 | 0.00 | 82 | 1016.5 |
| 20260831202320 | 31 | 359 | 8.0 | 14.5 | 0.00 | 0.20 | 0.00 | 81 | 1016.3 |
| 20260831201818 | 31 | 54 | 8.0 | 14.5 | 0.00 | 0.20 | 0.00 | 81 | 1016.2 |
| 20260831201542 | 31 | 335 | 9.7 | 14.5 | 0.00 | 0.20 | 0.00 | 81 | 1016.1 |
| 20260831201315 | 31 | 337 | 6.4 | 14.5 | 0.00 | 0.20 | 0.00 | 81 | 1016.1 |
| 20260831200829 | 31 | 5 | 6.4 | 12.9 | 0.00 | 0.20 | 0.00 | 81 | 1016.1 |
| 20260831200326 | 31 | 345 | 4.8 | 9.7 | 0.00 | 0.20 | 0.00 | 81 | 1016.3 |
| 20260831200032 | 31 | 338 | 4.8 | 12.9 | 0.00 | 0.20 | 0.00 | 81 | 1016.2 |
| 20260831195824 | 31 | 332 | 6.4 | 12.9 | 0.00 | 0.20 | 0.00 | 81 | 1016.2 |
| 20260831194841 | 31 | 16 | 8.0 | 16.1 | 0.00 | 0.20 | 0.00 | 81 | 1015.9 |
| 20260831194635 | 30 | 329 | 8.0 | 14.5 | 0.00 | 0.20 | 0.00 | 81 | 1015.7 |
| 20260831194337 | 31 | 58 | 8.0 | 12.9 | 0.00 | 0.20 | 0.00 | 81 | 1015.9 |
| 20260831193833 | 31 | 14 | 8.0 | 14.5 | 0.00 | 0.20 | 0.00 | 81 | 1016.0 |
| 20260831193329 | 31 | 330 | 8.0 | 14.5 | 0.00 | 0.20 | 0.00 | 81 | 1016.2 |
| 20260831193017 | 30 | 8 | 6.4 | 14.5 | 0.00 | 0.20 | 0.00 | 80 | 1016.1 |
| 20260831192826 | 31 | 333 | 6.4 | 14.5 | 0.00 | 0.20 | 0.00 | 80 | 1016.4 |
| 20260831192321 | 31 | 331 | 6.4 | 14.5 | 0.00 | 0.20 | 0.00 | 80 | 1016.7 |
| 20260831191837 | 31 | 6 | 6.4 | 14.5 | 0.00 | 0.20 | 0.00 | 81 | 1016.6 |
| 20260831191538 | 31 | 342 | 6.4 | 12.9 | 0.00 | 0.20 | 0.00 | 81 | 1016.5 |
| 20260831191314 | 31 | 339 | 6.4 | 12.9 | 0.00 | 0.20 | 0.00 | 81 | 1016.5 |
| 20260831190830 | 31 | 351 | 6.4 | 16.1 | 0.00 | 0.20 | 0.00 | 81 | 1016.4 |
| 20260831190327 | 31 | 339 | 9.7 | 16.1 | 0.00 | 0.20 | 0.00 | 81 | 1016.3 |
| 20260831190112 | 30 | 4 | 8.0 | 16.1 | 0.00 | 0.20 | 0.00 | 81 | 1016.2 |
| 20260831185822 | 31 | 23 | 6.4 | 11.3 | 0.00 | 0.20 | 0.00 | 81 | 1016.4 |
| 20260831185338 | 30 | 37 | 4.8 | 14.5 | 0.00 | 0.20 | 0.00 | 81 | 1016.6 |
| 20260831184833 | 30 | 345 | 8.0 | 14.5 | 0.00 | 0.20 | 0.00 | 81 | 1016.6 |
| 20260831184515 | 30 | 357 | 6.4 | 11.3 | 0.00 | 0.20 | 0.00 | 82 | 1016.5 |
| 20260831184329 | 30 | 36 | 6.4 | 9.7 | 0.00 | 0.20 | 0.00 | 82 | 1016.7 |
| 20260831183826 | 30 | 1 | 4.8 | 12.9 | 0.00 | 0.20 | 0.00 | 82 | 1016.9 |
| 20260831183322 | 30 | 346 | 4.8 | 12.9 | 0.00 | 0.20 | 0.00 | 82 | 1016.8 |
| 20260831183003 | 30 | 343 | 6.4 | 12.9 | 0.00 | 0.20 | 0.00 | 81 | 1016.8 |
| 20260831182817 | 30 | 346 | 6.4 | 14.5 | 0.00 | 0.20 | 0.00 | 81 | 1016.9 |
| 20260831182333 | 30 | 5 | 8.0 | 19.3 | 0.00 | 0.20 | 0.00 | 80 | 1017.1 |
| 20260831181830 | 31 | 45 | 9.7 | 17.7 | 0.00 | 0.20 | 0.00 | 80 | 1017.0 |
| 20260831181547 | 30 | 23 | 8.0 | 14.5 | 0.00 | 0.20 | 0.00 | 80 | 1017.0 |
| 20260831181347 | 31 | 35 | 6.4 | 14.5 | 0.00 | 0.20 | 0.00 | 80 | 1017.2 |
| 20260831180821 | 30 | 32 | 9.7 | 12.9 | 0.00 | 0.20 | 0.00 | 80 | 1017.3 |
| 20260831180338 | 30 | 21 | 6.4 | 12.9 | 0.00 | 0.20 | 0.00 | 81 | 1017.3 |
| 20260831180009 | 30 | 23 | 4.8 | 12.9 | 0.00 | 0.20 | 0.00 | 81 | 1017.2 |
| 20260831175853 | 30 | 18 | 8.0 | 12.9 | 0.00 | 0.20 | 0.00 | 81 | 1017.4 |
| 20260831175325 | 30 | 345 | 6.4 | 16.1 | 0.00 | 0.20 | 0.00 | 82 | 1017.5 |
| 20260831174822 | 30 | 354 | 3.2 | 17.7 | 0.00 | 0.20 | 0.00 | 82 | 1017.5 |
| 20260831174530 | 30 | 4 | 11.3 | 17.7 | 0.00 | 0.20 | 0.00 | 81 | 1017.4 |
| 20260831174335 | 30 | 7 | 11.3 | 16.1 | 0.00 | 0.20 | 0.00 | 81 | 1017.3 |
| 20260831173831 | 31 | 354 | 8.0 | 12.9 | 0.00 | 0.20 | 0.00 | 80 | 1017.5 |
| 20260831173328 | 31 | 344 | 8.0 | 12.9 | 0.00 | 0.20 | 0.00 | 80 | 1017.5 |
| 20260831173058 | 31 | 20 | 1.6 | 11.3 | 0.00 | 0.20 | 0.00 | 80 | 1017.3 |
| 20260831172843 | 31 | 39 | 3.2 | 11.3 | 0.00 | 0.20 | 0.00 | 80 | 1017.4 |
| 20260831172319 | 31 | 98 | 4.8 | 11.3 | 0.00 | 0.20 | 0.00 | 79 | 1017.4 |
| 20260831171816 | 32 | 137 | 4.8 | 8.0 | 0.00 | 0.20 | 0.00 | 79 | 1017.4 |
| 20260831171514 | 32 | 111 | 3.2 | 8.0 | 0.00 | 0.20 | 0.00 | 79 | 1017.3 |
| 20260831171334 | 32 | 145 | 4.8 | 8.0 | 0.00 | 0.20 | 0.00 | 79 | 1017.4 |
| 20260831170852 | 31 | 135 | 0.0 | 9.7 | 0.00 | 0.20 | 0.00 | 81 | 1017.3 |
| 20260831170326 | 31 | 125 | 3.2 | 12.9 | 0.00 | 0.20 | 0.00 | 80 | 1017.4 |
| 20260831170040 | 31 | 129 | 4.8 | 12.9 | 0.00 | 0.20 | 0.00 | 80 | 1017.3 |
| 20260831165822 | 31 | 105 | 4.8 | 12.9 | 0.00 | 0.20 | 0.00 | 80 | 1017.4 |
| 20260831165319 | 31 | 101 | 4.8 | 11.3 | 0.00 | 0.20 | 0.00 | 80 | 1017.4 |
| 20260831164815 | 31 | 124 | 3.2 | 9.7 | 0.00 | 0.20 | 0.00 | 81 | 1017.5 |
| 20260831164519 | 31 | 148 | 1.6 | 11.3 | 0.00 | 0.20 | 0.00 | 82 | 1017.4 |
| 20260831164330 | 31 | 129 | 3.2 | 14.5 | 0.00 | 0.20 | 0.00 | 81 | 1017.6 |
| 20260831163827 | 31 | 127 | 3.2 | 14.5 | 0.00 | 0.20 | 0.00 | 81 | 1017.6 |
| 20260831163324 | 31 | 126 | 3.2 | 11.3 | 0.00 | 0.20 | 0.00 | 81 | 1017.6 |
| 20260831163010 | 31 | 106 | 1.6 | 11.3 | 0.00 | 0.20 | 0.00 | 81 | 1017.5 |
| 20260831162819 | 31 | 125 | 4.8 | 11.3 | 0.00 | 0.20 | 0.00 | 81 | 1017.6 |
| 20260831162315 | 31 | 153 | 4.8 | 12.9 | 0.00 | 0.20 | 0.00 | 81 | 1017.6 |
| 20260831161832 | 31 | 102 | 3.2 | 12.9 | 0.00 | 0.20 | 0.00 | 81 | 1017.7 |
| 20260831161601 | 31 | 115 | 1.6 | 6.4 | 0.00 | 0.20 | 0.00 | 80 | 1017.6 |
| 20260831161501 | 31 | 146 | 1.6 | 6.4 | 0.00 | 0.20 | 0.00 | 80 | 1017.6 |
| 20260831161329 | 31 | 149 | 3.2 | 6.4 | 0.00 | 0.20 | 0.00 | 81 | 1017.8 |
| 20260831160847 | 31 | 125 | 3.2 | 6.4 | 0.00 | 0.20 | 0.00 | 81 | 1017.9 |
| 20260831160343 | 31 | 136 | 1.6 | 9.7 | 0.00 | 0.20 | 0.00 | 81 | 1018.0 |
| 20260831160104 | 31 | 140 | 3.2 | 9.7 | 0.00 | 0.20 | 0.00 | 81 | 1017.9 |
| 20260831155818 | 31 | 115 | 3.2 | 9.7 | 0.00 | 0.23 | 0.00 | 81 | 1018.0 |
| 20260831155334 | 31 | 219 | 1.6 | 8.0 | 0.00 | 0.23 | 0.00 | 82 | 1018.1 |
| 20260831154831 | 32 | 151 | 4.8 | 8.0 | 0.00 | 0.23 | 0.00 | 81 | 1018.1 |
| 20260831154536 | 31 | 188 | 1.6 | 8.0 | 0.00 | 0.23 | 0.00 | 81 | 1017.9 |
| 20260831154327 | 31 | 153 | 3.2 | 8.0 | 0.00 | 0.23 | 0.00 | 82 | 1018.1 |
| 20260831153844 | 31 | 131 | 1.6 | 9.7 | 0.00 | 0.23 | 0.00 | 82 | 1018.2 |
| 20260831153319 | 31 | 146 | 3.2 | 11.3 | 0.00 | 0.23 | 0.00 | 82 | 1018.2 |
| 20260831153101 | 31 | 161 | 4.8 | 11.3 | 0.00 | 0.23 | 0.00 | 82 | 1018.1 |
| 20260831153001 | 31 | 139 | 6.4 | 11.3 | 0.00 | 0.23 | 0.00 | 82 | 1018.1 |
| 20260831152817 | 31 | 127 | 4.8 | 9.7 | 0.00 | 0.23 | 0.00 | 82 | 1018.2 |
| 20260831152335 | 31 | 133 | 3.2 | 9.7 | 0.00 | 0.23 | 0.00 | 82 | 1018.3 |
| 20260831151852 | 31 | 135 | 1.6 | 9.7 | 0.00 | 0.23 | 0.00 | 82 | 1018.2 |
| 20260831151523 | 30 | 141 | 3.2 | 9.7 | 0.00 | 0.23 | 0.00 | 82 | 1018.2 |
| 20260831151328 | 30 | 131 | 3.2 | 9.7 | 0.00 | 0.23 | 0.00 | 82 | 1018.2 |
| 20260831150825 | 31 | 113 | 3.2 | 6.4 | 0.00 | 0.23 | 0.00 | 82 | 1018.1 |
| 20260831150323 | 31 | 103 | 1.6 | 4.8 | 0.00 | 0.23 | 0.00 | 82 | 1018.1 |
| 20260831150012 | 30 | 127 | 0.0 | 4.8 | 0.00 | 0.23 | 0.00 | 82 | 1017.9 |
| 20260831145834 | 30 | 127 | 0.0 | 4.8 | 0.00 | 0.23 | 0.00 | 82 | 1018.0 |
| 20260831145350 | 30 | 122 | 3.2 | 4.8 | 0.00 | 0.23 | 0.00 | 82 | 1018.0 |
| 20260831144826 | 30 | 124 | 1.6 | 6.4 | 0.00 | 0.23 | 0.00 | 82 | 1018.0 |
| 20260831144534 | 30 | 71 | 1.6 | 6.4 | 0.00 | 0.23 | 0.00 | 82 | 1017.9 |
| 20260831144316 | 30 | 65 | 1.6 | 6.4 | 0.00 | 0.23 | 0.00 | 82 | 1018.0 |
| 20260831143815 | 30 | 86 | 3.2 | 9.7 | 0.00 | 0.23 | 0.00 | 82 | 1018.1 |
| 20260831143331 | 30 | 84 | 3.2 | 9.7 | 0.00 | 0.23 | 0.00 | 82 | 1018.0 |
| 20260831143019 | 30 | 134 | 3.2 | 9.7 | 0.00 | 0.23 | 0.00 | 82 | 1017.9 |
| 20260831142828 | 31 | 134 | 3.2 | 8.0 | 0.00 | 0.23 | 0.00 | 82 | 1018.0 |
| 20260831142325 | 31 | 51 | 1.6 | 6.4 | 0.00 | 0.23 | 0.00 | 82 | 1017.9 |
| 20260831141822 | 31 | 229 | 1.6 | 8.0 | 0.00 | 0.23 | 0.00 | 82 | 1017.9 |
| 20260831141614 | 31 | 129 | 3.2 | 8.0 | 0.00 | 0.23 | 0.00 | 82 | 1017.7 |
| 20260831141319 | 31 | 129 | 1.6 | 8.0 | 0.00 | 0.23 | 0.00 | 82 | 1018.0 |
| 20260831140817 | 31 | 129 | 1.6 | 6.4 | 0.00 | 0.23 | 0.00 | 82 | 1018.1 |
| 20260831140333 | 31 | 81 | 0.0 | 4.8 | 0.00 | 0.23 | 0.00 | 82 | 1017.9 |
| 20260831140046 | 31 | 122 | 0.0 | 4.8 | 0.00 | 0.23 | 0.00 | 82 | 1017.7 |
| 20260831135829 | 31 | 122 | 1.6 | 4.8 | 0.00 | 0.23 | 0.00 | 82 | 1017.8 |
| 20260831135324 | 31 | 119 | 0.0 | 3.2 | 0.00 | 0.23 | 0.00 | 82 | 1017.8 |
| 20260831134820 | 32 | 135 | 0.0 | 1.6 | 0.00 | 0.23 | 0.00 | 82 | 1017.8 |
| 20260831134541 | 31 | 70 | 0.0 | 0.0 | 0.00 | 0.23 | 0.00 | 84 | 1017.7 |
| 20260831134316 | 31 | 70 | 0.0 | 0.0 | 0.00 | 0.23 | 0.00 | 84 | 1017.7 |
| 20260831133900 | 30 | 70 | 0.0 | 0.0 | 0.00 | 0.23 | 0.00 | 84 | 1017.7 |
| 20260831133355 | 30 | 72 | 0.0 | 1.6 | 0.00 | 0.23 | 0.00 | 84 | 1017.9 |
| 20260831133037 | 30 | 72 | 0.0 | 1.6 | 0.00 | 0.23 | 0.00 | 86 | 1017.7 |
| 20260831132831 | 30 | 72 | 0.0 | 1.6 | 0.00 | 0.23 | 0.00 | 85 | 1017.6 |
| 20260831132327 | 30 | 134 | 0.0 | 1.6 | 0.00 | 0.23 | 0.00 | 88 | 1017.5 |
| 20260831131821 | 29 | 133 | 0.0 | 1.6 | 0.00 | 0.23 | 0.00 | 90 | 1017.5 |
| 20260831131524 | 28 | 134 | 0.0 | 0.0 | 0.00 | 0.23 | 0.00 | 91 | 1017.4 |
| 20260831131318 | 28 | 134 | 0.0 | 0.0 | 0.00 | 0.23 | 0.00 | 92 | 1017.5 |
| 20260831130834 | 28 | 134 | 0.0 | 0.0 | 0.00 | 0.23 | 0.00 | 93 | 1017.5 |
| 20260831130331 | 27 | 134 | 0.0 | 0.0 | 0.00 | 0.23 | 0.00 | 93 | 1017.4 |
| 20260831130009 | 27 | 134 | 0.0 | 1.6 | 0.00 | 0.23 | 0.00 | 94 | 1017.1 |
| 20260831125827 | 27 | 134 | 0.0 | 1.6 | 0.00 | 0.23 | 0.00 | 94 | 1017.3 |
| 20260831125323 | 27 | 134 | 0.0 | 3.2 | 0.00 | 0.23 | 0.00 | 94 | 1017.3 |
| 20260831124818 | 26 | 134 | 0.0 | 1.6 | 0.00 | 0.23 | 0.00 | 94 | 1017.2 |
| 20260831124608 | 26 | 358 | 0.0 | 3.2 | 0.00 | 0.23 | 0.00 | 94 | 1017.0 |
| 20260831124333 | 26 | 349 | 0.0 | 3.2 | 0.00 | 0.23 | 0.00 | 94 | 1017.0 |
| 20260831123827 | 26 | 328 | 0.0 | 1.6 | 0.00 | 0.23 | 0.00 | 94 | 1017.1 |
| 20260831123325 | 26 | 359 | 0.0 | 0.0 | 0.00 | 0.23 | 0.00 | 94 | 1017.1 |
| 20260831123044 | 25 | 359 | 0.0 | 0.0 | 0.00 | 0.23 | 0.00 | 94 | 1017.0 |
| 20260831122821 | 25 | 359 | 0.0 | 0.0 | 0.00 | 0.23 | 0.00 | 94 | 1017.1 |
| 20260831122319 | 25 | 1 | 0.0 | 1.6 | 0.00 | 0.23 | 0.00 | 94 | 1017.0 |
| 20260831121816 | 25 | 352 | 0.0 | 1.6 | 0.00 | 0.23 | 0.00 | 94 | 1017.0 |
| 20260831121531 | 25 | 352 | 0.0 | 1.6 | 0.00 | 0.23 | 0.00 | 94 | 1016.8 |
| 20260831121333 | 25 | 349 | 0.0 | 0.0 | 0.00 | 0.23 | 0.00 | 94 | 1016.9 |
| 20260831120831 | 25 | 349 | 0.0 | 0.0 | 0.00 | 0.23 | 0.00 | 94 | 1016.8 |
| 20260831120329 | 25 | 349 | 0.0 | 0.0 | 0.00 | 0.23 | 0.00 | 94 | 1016.7 |
| 20260831120023 | 25 | 349 | 0.0 | 0.0 | 0.00 | 0.23 | 0.00 | 94 | 1016.6 |
| 20260831115828 | 25 | 349 | 0.0 | 0.0 | 0.00 | 0.23 | 0.00 | 94 | 1016.7 |
| 20260831115326 | 25 | 349 | 0.0 | 0.0 | 0.00 | 0.23 | 0.00 | 94 | 1016.7 |
| 20260831114822 | 25 | 349 | 0.0 | 0.0 | 0.00 | 0.23 | 0.00 | 94 | 1016.7 |
| 20260831114559 | 25 | 349 | 0.0 | 0.0 | 0.00 | 0.23 | 0.00 | 94 | 1016.5 |
| 20260831114501 | 25 | 349 | 0.0 | 0.0 | 0.00 | 0.23 | 0.00 | 94 | 1016.5 |
| 20260831114319 | 25 | 349 | 0.0 | 0.0 | 0.00 | 0.23 | 0.00 | 94 | 1016.6 |
| 20260831113814 | 25 | 349 | 0.0 | 0.0 | 0.00 | 0.23 | 0.00 | 94 | 1016.6 |
| 20260831113330 | 25 | 349 | 0.0 | 0.0 | 0.00 | 0.23 | 0.00 | 94 | 1016.5 |
| 20260831113053 | 25 | 349 | 0.0 | 0.0 | 0.00 | 0.23 | 0.00 | 94 | 1016.4 |
| 20260831112827 | 25 | 349 | 0.0 | 0.0 | 0.00 | 0.23 | 0.00 | 94 | 1016.4 |
| 20260831112323 | 25 | 349 | 0.0 | 0.0 | 0.00 | 0.23 | 0.00 | 94 | 1016.4 |
| 20260831111550 | 25 | 347 | 0.0 | 0.0 | 0.00 | 0.23 | 0.00 | 94 | 1016.1 |
| 20260831111330 | 25 | 347 | 0.0 | 0.0 | 0.00 | 0.23 | 0.00 | 94 | 1016.2 |
| 20260831110827 | 25 | 347 | 0.0 | 0.0 | 0.00 | 0.23 | 0.00 | 94 | 1016.2 |
| 20260831110325 | 25 | 347 | 0.0 | 0.0 | 0.00 | 0.23 | 0.00 | 94 | 1016.2 |
| 20260831110039 | 25 | 347 | 0.0 | 0.0 | 0.00 | 0.23 | 0.00 | 94 | 1016.0 |
| 20260831105821 | 25 | 347 | 0.0 | 0.0 | 0.00 | 0.23 | 0.00 | 94 | 1016.0 |
| 20260831105318 | 25 | 347 | 0.0 | 0.0 | 0.00 | 0.23 | 0.00 | 94 | 1016.1 |
| 20260831104533 | 25 | 347 | 0.0 | 0.0 | 0.00 | 0.23 | 0.00 | 94 | 1015.9 |
| 20260831104330 | 25 | 347 | 0.0 | 0.0 | 0.00 | 0.23 | 0.00 | 94 | 1016.0 |
| 20260831103827 | 25 | 347 | 0.0 | 0.0 | 0.00 | 0.23 | 0.00 | 94 | 1016.0 |
| 20260831103324 | 25 | 347 | 0.0 | 0.0 | 0.00 | 0.23 | 0.00 | 94 | 1016.0 |
| 20260831103022 | 25 | 347 | 0.0 | 0.0 | 0.00 | 0.23 | 0.00 | 94 | 1015.9 |
| 20260831102821 | 25 | 347 | 0.0 | 0.0 | 0.00 | 0.23 | 0.00 | 94 | 1016.1 |
| 20260831102320 | 25 | 347 | 0.0 | 0.0 | 0.00 | 0.23 | 0.00 | 94 | 1016.0 |
| 20260831101837 | 25 | 347 | 0.0 | 0.0 | 0.00 | 0.23 | 0.00 | 94 | 1016.0 |
| 20260831101509 | 25 | 347 | 0.0 | 0.0 | 0.00 | 0.23 | 0.00 | 94 | 1015.9 |
| 20260831101353 | 25 | 347 | 0.0 | 0.0 | 0.00 | 0.23 | 0.00 | 94 | 1016.0 |
| 20260831100828 | 25 | 347 | 0.0 | 0.0 | 0.00 | 0.23 | 0.00 | 94 | 1016.1 |
| 20260831100327 | 25 | 347 | 0.0 | 0.0 | 0.00 | 0.23 | 0.00 | 94 | 1016.0 |
| 20260831100031 | 25 | 347 | 0.0 | 0.0 | 0.00 | 0.23 | 0.00 | 94 | 1015.8 |
| 20260831095822 | 25 | 347 | 0.0 | 0.0 | 0.00 | 0.23 | 0.00 | 94 | 1016.0 |
| 20260831095340 | 25 | 347 | 0.0 | 0.0 | 0.00 | 0.23 | 0.00 | 94 | 1015.9 |
| 20260831094850 | 25 | 347 | 0.0 | 0.0 | 0.00 | 0.23 | 0.00 | 94 | 1015.8 |
| 20260831094545 | 25 | 347 | 0.0 | 0.0 | 0.00 | 0.23 | 0.00 | 94 | 1015.7 |
| 20260831094326 | 25 | 347 | 0.0 | 0.0 | 0.00 | 0.23 | 0.00 | 94 | 1015.6 |
| 20260831093845 | 25 | 347 | 0.0 | 0.0 | 0.00 | 0.23 | 0.00 | 94 | 1015.5 |
| 20260831093320 | 25 | 347 | 0.0 | 0.0 | 0.00 | 0.23 | 0.00 | 94 | 1015.5 |
| 20260831093009 | 25 | 347 | 0.0 | 0.0 | 0.00 | 0.23 | 0.00 | 94 | 1015.4 |
| 20260831092819 | 25 | 347 | 0.0 | 0.0 | 0.00 | 0.23 | 0.00 | 94 | 1015.6 |
| 20260831092317 | 25 | 347 | 0.0 | 1.6 | 0.00 | 0.23 | 0.00 | 94 | 1015.6 |
| 20260831091834 | 25 | 347 | 0.0 | 3.2 | 0.00 | 0.23 | 0.00 | 94 | 1015.6 |
| 20260831091527 | 25 | 347 | 0.0 | 3.2 | 0.00 | 0.23 | 0.00 | 94 | 1015.5 |
| 20260831091331 | 25 | 347 | 1.6 | 3.2 | 0.00 | 0.23 | 0.00 | 94 | 1015.6 |
| 20260831090828 | 25 | 344 | 0.0 | 1.6 | 0.00 | 0.23 | 0.00 | 94 | 1015.7 |
| 20260831090323 | 25 | 342 | 0.0 | 1.6 | 0.00 | 0.23 | 0.00 | 94 | 1015.6 |
| 20260831090011 | 25 | 342 | 0.0 | 0.0 | 0.00 | 0.23 | 0.00 | 94 | 1015.7 |
| 20260831085838 | 25 | 342 | 0.0 | 0.0 | 0.00 | 0.23 | 0.00 | 94 | 1015.8 |
| 20260831085332 | 25 | 342 | 0.0 | 1.6 | 0.00 | 0.23 | 0.00 | 94 | 1015.9 |
| 20260831084828 | 25 | 342 | 0.0 | 1.6 | 0.00 | 0.23 | 0.00 | 94 | 1015.8 |
| 20260831084534 | 25 | 342 | 0.0 | 1.6 | 0.00 | 0.23 | 0.00 | 94 | 1015.7 |
| 20260831084326 | 25 | 342 | 0.0 | 1.6 | 0.00 | 0.23 | 0.00 | 94 | 1015.9 |
| 20260831083823 | 25 | 11 | 0.0 | 0.0 | 0.00 | 0.23 | 0.00 | 94 | 1015.8 |
| 20260831083320 | 25 | 11 | 0.0 | 0.0 | 0.00 | 0.23 | 0.00 | 94 | 1015.9 |
| 20260831083023 | 25 | 11 | 0.0 | 0.0 | 0.00 | 0.23 | 0.00 | 94 | 1015.8 |
| 20260831082816 | 25 | 11 | 0.0 | 0.0 | 0.00 | 0.23 | 0.00 | 94 | 1015.9 |
| 20260831082333 | 25 | 11 | 0.0 | 0.0 | 0.00 | 0.23 | 0.00 | 94 | 1016.0 |
| 20260831081830 | 25 | 11 | 0.0 | 0.0 | 0.00 | 0.23 | 0.00 | 94 | 1016.0 |
| 20260831081515 | 25 | 11 | 0.0 | 0.0 | 0.00 | 0.23 | 0.00 | 94 | 1015.9 |
| 20260831081326 | 25 | 11 | 0.0 | 0.0 | 0.00 | 0.23 | 0.00 | 94 | 1016.0 |
| 20260831080823 | 25 | 11 | 0.0 | 0.0 | 0.00 | 0.23 | 0.00 | 94 | 1016.1 |
| 20260831080321 | 25 | 11 | 0.0 | 0.0 | 0.00 | 0.23 | 0.00 | 94 | 1016.0 |
| 20260831080006 | 25 | 11 | 0.0 | 0.0 | 0.00 | 0.23 | 0.00 | 94 | 1016.0 |
| 20260831075839 | 25 | 11 | 0.0 | 0.0 | 0.00 | 0.23 | 0.00 | 94 | 1016.1 |
| 20260831075314 | 25 | 11 | 0.0 | 0.0 | 0.00 | 0.23 | 0.00 | 94 | 1016.0 |
| 20260831074830 | 25 | 11 | 0.0 | 0.0 | 0.00 | 0.23 | 0.00 | 94 | 1016.0 |
| 20260831074527 | 25 | 11 | 0.0 | 1.6 | 0.00 | 0.23 | 0.00 | 94 | 1015.9 |
| 20260831074327 | 25 | 11 | 0.0 | 1.6 | 0.00 | 0.23 | 0.00 | 94 | 1015.9 |
| 20260831073826 | 25 | 15 | 0.0 | 1.6 | 0.00 | 0.23 | 0.00 | 94 | 1016.0 |
| 20260831073322 | 25 | 29 | 0.0 | 0.0 | 0.00 | 0.23 | 0.00 | 94 | 1016.0 |
| 20260831073022 | 25 | 29 | 0.0 | 0.0 | 0.00 | 0.23 | 0.00 | 94 | 1015.9 |
| 20260831072818 | 25 | 29 | 0.0 | 0.0 | 0.00 | 0.23 | 0.00 | 94 | 1016.0 |
| 20260831072317 | 25 | 29 | 0.0 | 0.0 | 0.00 | 0.23 | 0.00 | 94 | 1016.1 |
| 20260831071836 | 25 | 29 | 0.0 | 0.0 | 0.00 | 0.23 | 0.00 | 94 | 1016.1 |
| 20260831071551 | 25 | 29 | 0.0 | 0.0 | 0.00 | 0.23 | 0.00 | 94 | 1016.0 |
| 20260831071352 | 25 | 29 | 0.0 | 0.0 | 0.00 | 0.23 | 0.00 | 94 | 1016.2 |
| 20260831070826 | 25 | 29 | 0.0 | 0.0 | 0.00 | 0.23 | 0.00 | 94 | 1016.2 |
| 20260831070324 | 25 | 29 | 0.0 | 0.0 | 0.00 | 0.23 | 0.00 | 94 | 1016.2 |
| 20260831070028 | 25 | 29 | 0.0 | 0.0 | 0.00 | 0.23 | 0.00 | 94 | 1016.1 |
| 20260831065821 | 25 | 29 | 0.0 | 0.0 | 0.00 | 0.23 | 0.00 | 94 | 1016.2 |
| 20260831065317 | 25 | 29 | 0.0 | 0.0 | 0.00 | 0.23 | 0.00 | 93 | 1016.3 |
| 20260831064815 | 25 | 29 | 0.0 | 0.0 | 0.00 | 0.23 | 0.00 | 93 | 1016.4 |
| 20260831064508 | 25 | 29 | 0.0 | 0.0 | 0.00 | 0.23 | 0.00 | 93 | 1016.3 |
| 20260831064331 | 25 | 29 | 0.0 | 0.0 | 0.00 | 0.23 | 0.00 | 93 | 1016.4 |
| 20260831063849 | 25 | 29 | 0.0 | 0.0 | 0.00 | 0.23 | 0.00 | 93 | 1016.5 |
| 20260831063324 | 25 | 29 | 0.0 | 0.0 | 0.00 | 0.23 | 0.00 | 93 | 1016.5 |
| 20260831063026 | 25 | 29 | 0.0 | 0.0 | 0.00 | 0.23 | 0.00 | 93 | 1016.4 |
| 20260831062821 | 25 | 29 | 0.0 | 0.0 | 0.00 | 0.23 | 0.00 | 93 | 1016.4 |
| 20260831062316 | 25 | 29 | 0.0 | 0.0 | 0.00 | 0.23 | 0.00 | 93 | 1016.3 |
| 20260831061833 | 25 | 29 | 0.0 | 0.0 | 0.00 | 0.23 | 0.00 | 93 | 1016.3 |
| 20260831061513 | 25 | 29 | 0.0 | 0.0 | 0.00 | 0.23 | 0.00 | 93 | 1016.3 |
| 20260831061328 | 25 | 29 | 0.0 | 0.0 | 0.00 | 0.23 | 0.00 | 93 | 1016.4 |
| 20260831060826 | 25 | 29 | 0.0 | 0.0 | 0.00 | 0.23 | 0.00 | 93 | 1016.4 |
| 20260831060323 | 25 | 29 | 0.0 | 0.0 | 0.00 | 0.23 | 0.00 | 93 | 1016.5 |
| 20260831060002 | 25 | 29 | 0.0 | 0.0 | 0.00 | 0.23 | 0.00 | 93 | 1016.5 |
| 20260831055840 | 25 | 29 | 0.0 | 0.0 | 0.00 | 0.23 | 0.00 | 93 | 1016.6 |
| 20260831055316 | 25 | 29 | 0.0 | 0.0 | 0.00 | 0.23 | 0.00 | 93 | 1016.7 |
| 20260831054832 | 25 | 29 | 0.0 | 0.0 | 0.00 | 0.23 | 0.00 | 93 | 1016.8 |
| 20260831054525 | 25 | 29 | 0.0 | 0.0 | 0.00 | 0.23 | 0.00 | 93 | 1016.8 |
| 20260831054329 | 25 | 29 | 0.0 | 0.0 | 0.00 | 0.23 | 0.00 | 93 | 1017.0 |
| 20260831053826 | 25 | 29 | 0.0 | 0.0 | 0.00 | 0.23 | 0.00 | 93 | 1016.9 |
| 20260831053324 | 25 | 29 | 0.0 | 0.0 | 0.00 | 0.23 | 0.00 | 93 | 1017.0 |
| 20260831053011 | 25 | 29 | 0.0 | 0.0 | 0.00 | 0.23 | 0.00 | 93 | 1017.0 |
| 20260831052821 | 25 | 29 | 0.0 | 0.0 | 0.00 | 0.23 | 0.00 | 93 | 1017.1 |
| 20260831052319 | 25 | 29 | 0.0 | 0.0 | 0.00 | 0.23 | 0.00 | 93 | 1017.2 |
| 20260831051816 | 25 | 29 | 0.0 | 0.0 | 0.00 | 0.23 | 0.00 | 93 | 1017.2 |
| 20260831051608 | 25 | 29 | 0.0 | 0.0 | 0.00 | 0.23 | 0.00 | 93 | 1017.3 |
| 20260831051332 | 25 | 29 | 0.0 | 0.0 | 0.00 | 0.23 | 0.00 | 93 | 1017.2 |
| 20260831050829 | 25 | 29 | 0.0 | 0.0 | 0.00 | 0.23 | 0.00 | 93 | 1017.3 |
| 20260831050326 | 25 | 29 | 0.0 | 0.0 | 0.00 | 0.23 | 0.00 | 93 | 1017.3 |
| 20260831050042 | 25 | 29 | 0.0 | 0.0 | 0.00 | 0.23 | 0.00 | 93 | 1017.2 |
| 20260831045823 | 25 | 29 | 0.0 | 0.0 | 0.00 | 0.23 | 0.00 | 93 | 1017.3 |
| 20260831045337 | 25 | 29 | 0.0 | 0.0 | 0.00 | 0.23 | 0.00 | 93 | 1017.3 |
| 20260831044832 | 25 | 29 | 0.0 | 0.0 | 0.00 | 0.23 | 0.00 | 93 | 1017.5 |
| 20260831044559 | 25 | 29 | 0.0 | 0.0 | 0.00 | 0.23 | 0.00 | 93 | 1017.4 |
| 20260831044500 | 25 | 29 | 0.0 | 0.0 | 0.00 | 0.23 | 0.00 | 93 | 1017.4 |
| 20260831044329 | 25 | 29 | 0.0 | 0.0 | 0.00 | 0.23 | 0.00 | 93 | 1017.5 |
| 20260831043848 | 25 | 29 | 0.0 | 0.0 | 0.00 | 0.23 | 0.00 | 93 | 1017.6 |
| 20260831043324 | 25 | 29 | 0.0 | 0.0 | 0.00 | 0.23 | 0.00 | 93 | 1017.6 |
| 20260831043021 | 25 | 29 | 0.0 | 0.0 | 0.00 | 0.23 | 0.00 | 93 | 1017.6 |
| 20260831042819 | 25 | 29 | 0.0 | 0.0 | 0.00 | 0.23 | 0.00 | 93 | 1017.6 |
| 20260831042337 | 25 | 29 | 0.0 | 0.0 | 0.00 | 0.23 | 0.00 | 93 | 1017.6 |
| 20260831041854 | 25 | 29 | 0.0 | 0.0 | 0.00 | 0.23 | 0.00 | 93 | 1017.6 |
| 20260831041540 | 25 | 29 | 0.0 | 0.0 | 0.00 | 0.23 | 0.00 | 93 | 1017.6 |
| 20260831041351 | 25 | 29 | 0.0 | 0.0 | 0.00 | 0.23 | 0.00 | 93 | 1017.6 |
| 20260831040848 | 25 | 29 | 0.0 | 0.0 | 0.00 | 0.23 | 0.00 | 93 | 1017.6 |
| 20260831040344 | 25 | 29 | 0.0 | 0.0 | 0.00 | 0.23 | 0.00 | 93 | 1017.6 |
| 20260831040028 | 25 | 29 | 0.0 | 0.0 | 0.00 | 0.23 | 0.00 | 93 | 1017.6 |
| 20260831035840 | 25 | 29 | 0.0 | 0.0 | 0.00 | 0.23 | 0.23 | 93 | 1017.7 |
| 20260831035355 | 25 | 29 | 0.0 | 0.0 | 0.00 | 0.23 | 0.23 | 93 | 1017.7 |
| 20260831034830 | 25 | 34 | 0.0 | 0.0 | 0.00 | 0.23 | 0.23 | 93 | 1017.8 |
| 20260831034546 | 25 | 49 | 0.0 | 0.0 | 0.00 | 0.23 | 0.23 | 93 | 1017.7 |
| 20260831034327 | 25 | 49 | 0.0 | 0.0 | 0.00 | 0.23 | 0.23 | 93 | 1017.8 |
| 20260831033822 | 25 | 50 | 0.0 | 0.0 | 0.00 | 0.23 | 0.23 | 93 | 1017.9 |
| 20260831033319 | 25 | 50 | 0.0 | 0.0 | 0.00 | 0.23 | 0.23 | 93 | 1017.9 |
| 20260831033033 | 25 | 50 | 0.0 | 0.0 | 0.00 | 0.23 | 0.23 | 93 | 1017.7 |
| 20260831032836 | 25 | 50 | 0.0 | 0.0 | 0.00 | 0.23 | 0.23 | 93 | 1017.8 |
| 20260831032353 | 25 | 50 | 0.0 | 0.0 | 0.00 | 0.23 | 0.23 | 93 | 1017.8 |
| 20260831031830 | 25 | 50 | 0.0 | 0.0 | 0.00 | 0.23 | 0.23 | 93 | 1017.8 |
| 20260831031553 | 25 | 50 | 0.0 | 0.0 | 0.00 | 0.23 | 0.23 | 93 | 1017.7 |
| 20260831031328 | 25 | 50 | 0.0 | 0.0 | 0.00 | 0.23 | 0.23 | 93 | 1017.8 |
| 20260831030824 | 25 | 50 | 0.0 | 0.0 | 0.00 | 0.23 | 0.23 | 93 | 1017.8 |
| 20260831030320 | 25 | 351 | 0.0 | 0.0 | 0.00 | 0.23 | 0.23 | 93 | 1017.8 |
| 20260831030035 | 25 | 350 | 0.0 | 0.0 | 0.00 | 0.23 | 0.23 | 93 | 1017.7 |
| 20260831025837 | 25 | 351 | 0.0 | 0.0 | 0.00 | 0.23 | 0.23 | 93 | 1017.9 |
| 20260831025329 | 25 | 350 | 0.0 | 0.0 | 0.00 | 0.23 | 0.23 | 93 | 1018.0 |
| 20260831024846 | 25 | 2 | 0.0 | 0.0 | 0.00 | 0.23 | 0.23 | 93 | 1017.8 |
| 20260831024600 | 25 | 2 | 0.0 | 0.0 | 0.00 | 0.23 | 0.23 | 93 | 1017.7 |
| 20260831024322 | 25 | 2 | 0.0 | 0.0 | 0.00 | 0.23 | 0.23 | 93 | 1017.8 |
| 20260831023839 | 25 | 2 | 0.0 | 0.0 | 0.00 | 0.23 | 0.23 | 93 | 1017.7 |
| 20260831023356 | 25 | 2 | 0.0 | 0.0 | 0.00 | 0.23 | 0.23 | 93 | 1017.6 |
| 20260831023053 | 25 | 2 | 0.0 | 0.0 | 0.00 | 0.23 | 0.23 | 93 | 1017.5 |
| 20260831022831 | 25 | 2 | 0.0 | 0.0 | 0.00 | 0.23 | 0.23 | 93 | 1017.7 |
| 20260831022326 | 25 | 2 | 0.0 | 0.0 | 0.00 | 0.23 | 0.23 | 93 | 1017.5 |
| 20260831021845 | 25 | 2 | 0.0 | 0.0 | 0.00 | 0.23 | 0.23 | 93 | 1017.5 |
| 20260831021545 | 25 | 2 | 0.0 | 0.0 | 0.00 | 0.23 | 0.23 | 93 | 1017.4 |
| 20260831021341 | 25 | 2 | 0.0 | 0.0 | 0.00 | 0.23 | 0.23 | 93 | 1017.6 |
| 20260831020817 | 25 | 2 | 0.0 | 0.0 | 0.00 | 0.23 | 0.23 | 92 | 1017.6 |
| 20260831020334 | 25 | 2 | 0.0 | 0.0 | 0.00 | 0.23 | 0.23 | 92 | 1017.7 |
| 20260831020009 | 25 | 2 | 0.0 | 1.6 | 0.00 | 0.23 | 0.23 | 92 | 1017.6 |
| 20260831015851 | 25 | 2 | 0.0 | 1.6 | 0.00 | 0.23 | 0.23 | 92 | 1017.7 |
| 20260831015328 | 25 | 41 | 0.0 | 0.0 | 0.00 | 0.23 | 0.23 | 92 | 1017.8 |
| 20260831014822 | 25 | 41 | 0.0 | 0.0 | 0.00 | 0.23 | 0.23 | 92 | 1017.8 |
| 20260831014518 | 25 | 41 | 0.0 | 0.0 | 0.00 | 0.23 | 0.23 | 92 | 1017.8 |
| 20260831014339 | 25 | 41 | 0.0 | 0.0 | 0.00 | 0.23 | 0.23 | 92 | 1017.9 |
| 20260831013855 | 25 | 41 | 0.0 | 0.0 | 0.00 | 0.23 | 0.23 | 92 | 1017.9 |
| 20260831013351 | 25 | 41 | 0.0 | 0.0 | 0.00 | 0.23 | 0.23 | 92 | 1017.9 |
| 20260831013007 | 25 | 41 | 0.0 | 0.0 | 0.00 | 0.23 | 0.23 | 92 | 1017.7 |
| 20260831012827 | 25 | 41 | 0.0 | 0.0 | 0.00 | 0.23 | 0.23 | 92 | 1017.8 |
| 20260831012324 | 25 | 41 | 0.0 | 1.6 | 0.03 | 0.23 | 0.23 | 92 | 1017.7 |
| 20260831011838 | 25 | 41 | 0.0 | 1.6 | 0.03 | 0.23 | 0.23 | 92 | 1017.8 |
| 20260831011530 | 25 | 41 | 0.0 | 1.6 | 0.05 | 0.23 | 0.23 | 92 | 1017.7 |
| 20260831011332 | 25 | 46 | 0.0 | 0.0 | 0.05 | 0.23 | 0.23 | 92 | 1017.7 |
| 20260831010830 | 25 | 57 | 0.0 | 0.0 | 0.05 | 0.23 | 0.23 | 92 | 1017.7 |
| 20260831010327 | 25 | 57 | 0.0 | 0.0 | 0.08 | 0.23 | 0.23 | 91 | 1017.8 |
| 20260831010020 | 25 | 56 | 0.0 | 1.6 | 0.08 | 0.23 | 0.23 | 91 | 1017.6 |
| 20260831005823 | 25 | 56 | 0.0 | 1.6 | 0.10 | 0.23 | 0.23 | 91 | 1017.7 |
| 20260831005318 | 25 | 56 | 0.0 | 1.6 | 0.13 | 0.23 | 0.23 | 91 | 1017.6 |
| 20260831004836 | 25 | 57 | 0.0 | 0.0 | 0.13 | 0.23 | 0.23 | 91 | 1017.6 |
| 20260831004559 | 24 | 57 | 0.0 | 0.0 | 0.13 | 0.23 | 0.23 | 91 | 1017.5 |
| 20260831004505 | 24 | 57 | 0.0 | 0.0 | 0.13 | 0.23 | 0.23 | 91 | 1017.5 |
| 20260831004353 | 25 | 57 | 0.0 | 0.0 | 0.13 | 0.23 | 0.23 | 91 | 1017.6 |
| 20260831003829 | 25 | 56 | 0.0 | 4.8 | 0.15 | 0.23 | 0.23 | 91 | 1017.6 |
| 20260831003327 | 25 | 111 | 0.0 | 4.8 | 0.18 | 0.23 | 0.23 | 91 | 1017.6 |
| 20260831003024 | 25 | 136 | 0.0 | 4.8 | 0.18 | 0.23 | 0.23 | 91 | 1017.6 |
| 20260831002824 | 25 | 152 | 0.0 | 4.8 | 0.20 | 0.23 | 0.23 | 91 | 1017.7 |
| 20260831002321 | 25 | 56 | 0.0 | 4.8 | 0.18 | 0.20 | 0.20 | 91 | 1017.7 |
| 20260831001838 | 25 | 68 | 1.6 | 8.0 | 0.18 | 0.20 | 0.20 | 91 | 1017.7 |
| 20260831001544 | 25 | 136 | 3.2 | 8.0 | 0.15 | 0.18 | 0.18 | 91 | 1017.6 |
| 20260831001315 | 25 | 58 | 1.6 | 4.8 | 0.15 | 0.18 | 0.18 | 91 | 1017.6 |
| 20260831000832 | 25 | 143 | 0.0 | 4.8 | 0.15 | 0.18 | 0.18 | 91 | 1017.6 |
| 20260831000332 | 25 | 135 | 1.6 | 8.0 | 0.13 | 0.15 | 0.15 | 91 | 1017.4 |
| 20260831000027 | 25 | 79 | 1.6 | 8.0 | 0.13 | 0.15 | 0.15 | 91 | 1017.2 |
| 20260830235826 | 25 | 53 | 1.6 | 8.0 | 0.10 | 0.13 | 0.13 | 91 | 1017.3 |
| 20260830235323 | 25 | 57 | 3.2 | 11.3 | 0.08 | 0.10 | 0.10 | 91 | 1017.3 |
| 20260830234820 | 25 | 117 | 4.8 | 14.5 | 0.08 | 0.10 | 0.10 | 91 | 1017.3 |
| 20260830234514 | 25 | 134 | 1.6 | 14.5 | 0.08 | 0.10 | 0.10 | 91 | 1017.1 |
| 20260830234318 | 25 | 43 | 3.2 | 14.5 | 0.08 | 0.10 | 0.10 | 91 | 1017.2 |
| 20260830233816 | 25 | 49 | 3.2 | 11.3 | 0.05 | 0.08 | 0.08 | 90 | 1017.2 |
| 20260830233333 | 25 | 65 | 3.2 | 11.3 | 0.03 | 0.05 | 0.05 | 90 | 1017.3 |
| 20260830233057 | 25 | 126 | 4.8 | 11.3 | 0.03 | 0.05 | 0.05 | 90 | 1017.4 |
| 20260830232832 | 26 | 102 | 3.2 | 11.3 | 0.00 | 0.03 | 0.03 | 90 | 1017.5 |